Regional Weather Roundup
Issued by NWS

Home | Current Version | Previous Version | Graphics & Text | Print | Product List | Glossary On
Versions: 1 2 3 4 5 6 7 8 9 10 11 12 13 14 15 16 17 18 19 20 21 22 23 24 25 26 27 28 29 30 31 32 33 34 35 36 37 38 39 40 41 42 43 44 45 46 47 48 49 50
000
ASUS43 KLMK 160202
RWRKY
KENTUCKY REGIONAL WEATHER ROUNDUP
NATIONAL WEATHER SERVICE LOUISVILLE KY
1000 PM EDT MON SEP 15 2014

NOTE "FAIR" INDICATES FEW OR NO CLOUDS BELOW 12,000 FEET
WITH NO SIGNIFICANT WEATHER AND/OR OBSTRUCTIONS TO VISIBILITY.

KYZ001>023-026-027-061>063-070>075-160300-
WESTERN AND SOUTH CENTRAL KENTUCKY

CITY           SKY/WX    TMP DP  RH WIND       PRES   REMARKS
PADUCAH        CLEAR     65  61  87 CALM      30.08R
HENDERSON      CLOUDY    68  57  68 S5        30.06F
OWENSBORO      CLOUDY    69  61  76 S8        30.08S
HOPKINSVILLE   MOCLDY    67  65  91 S5        30.11R
BOWLING GREEN  CLOUDY    69  62  78 S6        30.10S
GLASGOW        CLOUDY    65  62  88 S3        30.11F
$$

KYZ024-025-028>034-038-045-046-053-160300-
NORTH CENTRAL KENTUCKY

CITY           SKY/WX    TMP DP  RH WIND       PRES   REMARKS
LOUISVILLE/SDF MOCLDY    66  57  72 SE7       30.08F
LOUISVILLE/LOU CLOUDY    64  57  78 CALM      30.09F
FORT KNOX      CLOUDY    67  60  78 S3        30.09S
$$

KYZ035>037-039>044-047>052-055>060-089>105-160300-
NORTHEAST KENTUCKY

CITY           SKY/WX    TMP DP  RH WIND       PRES   REMARKS
LEXINGTON      LGT RAIN  63  58  83 SE5       30.12F
COVINGTON      LGT RAIN  60  57  89 W3        30.09R
FRANKFORT      CLOUDY    61  59  93 S8        30.08F
$$

KYZ054-064>069-076>088-106>120-160300-
SOUTHEAST KENTUCKY

CITY           SKY/WX    TMP DP  RH WIND       PRES   REMARKS
JACKSON        CLOUDY    66  59  78 N5        30.14R
LONDON         MOCLDY    66  61  84 S6        30.14S
SOMERSET       NOT AVBL
MIDDLESBORO    CLOUDY    65  64  97 CALM      30.16S
MONTICELLO     CLOUDY    63  62  96 CALM      30.16R FOG
$$



USA.gov is the U.S. government's official web portal to all federal, state and local government web resources and services.